Regional Weather Roundup
Issued by NWS Cleveland, OH

Home | Current Version | Previous Version | Text Only | Print | Product List | Glossary On
Versions: 1 2 3 4 5 6 7 8 9 10 11 12 13 14 15 16 17 18 19 20 21 22 23 24 25 26 27 28 29 30 31 32 33 34 35 36 37 38 39 40 41 42 43 44 45 46 47 48 49 50
000
ASUS41 KCLE 061810
RWRCLE
OHIO REGIONAL WEATHER ROUNDUP
NATIONAL WEATHER SERVICE WILMINGTON, OH
200 PM EDT WED MAY 06 2015

NOTE: "FAIR" INDICATES FEW OR NO CLOUDS BELOW 12,000 FEET WITH NO
SIGNIFICANT WEATHER AND/OR OBSTRUCTIONS TO VISIBILITY.

OHZ001>008-015>018-024>027-034-035-043-044-061900-
   NORTHWEST OHIO

CITY           SKY/WX    TMP DP  RH WIND       PRES   REMARKS
DEFIANCE       CLOUDY    64  57  78 VRB6      30.22F HAZE
FINDLAY        MOSUNNY   72  58  61 N6        30.20F
TOLEDO EXPRESS MOSUNNY   64  56  75 E3        30.23S HAZE
TOLEDO EXEC    CLOUDY    62  55  77 E7        30.23F
LIMA           MOSUNNY   75  60  59 VRB5      30.20F
$$

OHZ009>014-019>023-028>033-038-089-061900-
   NORTHEAST OHIO

CITY           SKY/WX    TMP DP  RH WIND       PRES   REMARKS
CLE-HOPKINS    PTSUNNY   69  59  70 N6        30.23F
CLE-LAKEFRONT  FOG       55  52  89 NW6       30.21F VSB 3/4
CUY CO. ARPT   PTSUNNY   72  61  68 N9        30.22F
LORAIN-ELYRIA  PTSUNNY   70  59  68 VRB7      30.21F
ASHTABULA      CLOUDY    69  61  75 CALM      30.22F
AKRON-CANTON   PTSUNNY   79  59  50 W6        30.20F HAZE
WOOSTER        MOSUNNY   77  60  55 N5        30.20F
MANSFIELD      MOSUNNY   77  61  57 NW8       30.21F
YOUNGSTOWN     CLOUDY    76  58  53 CALM      30.20F
$$

OHZ042-051>053-060>062-070>072-077>081-061900-
  SOUTHWEST OHIO

CITY           SKY/WX    TMP DP  RH WIND       PRES   REMARKS
CINC-COVINGTON PTSUNNY   84  55  36 W9        30.19F
CINC-LUNKEN    MOSUNNY   83  55  38 VRB5      30.17F
HAMILTON       MOSUNNY   85  52  32 CALM      30.19F
DAYTON         MOSUNNY   84  52  33 CALM      30.19F
WRIGHT-PAT AFB NOT AVBL
DAYTON GENERAL CLOUDY    81  52  36 VRB3      30.18F
WILMINGTON     PTSUNNY   83  52  34 NW5       30.19F
$$

OHZ036-037-039>041-045>050-054>059-063>069-073>076-082>088-061900-
  CENTRAL AND SOUTHEAST OHIO

CITY           SKY/WX    TMP DP  RH WIND       PRES   REMARKS
COLUMBUS       MOSUNNY   82  54  37 SW6       30.18F
OSU AIRPORT    MOSUNNY   83  56  39 W8        30.18F
BOLTON FIELD   PTSUNNY   81  55  41 CALM      30.19F
RICKENBACK AFB MOSUNNY   82  55  39 W5        30.18F
NEWARK         MOSUNNY   81  58  45 W8        30.18F
MARION         SUNNY     79  60  52 NW7       30.20F
LANCASTER      SUNNY     83  54  36 NE3       30.19F
ZANESVILLE     MOSUNNY   82  55  39 VRB3      30.18F
NEW PHILLY     SUNNY     82  60  47 NW8       30.19F
$$



USA.gov is the U.S. government's official web portal to all federal, state and local government web resources and services.